Weather History for El Centro, CA

Change the Weather History Date:

Friday, January 25, 2013

  Actual Average Record
Temperature  
Mean Temperature 62 °F -  
Max Temperature 68 °F 69 °F 84 °F (2003)
Min Temperature 55 °F 45 °F 35 °F (2002)
Degree Days  
Heating Degree Days 4    
Growing Degree Days 12 (Base 50)    
Moisture  
Dew Point 52 °F    
Average Humidity 78    
Maximum Humidity 100    
Minimum Humidity 49    
Precipitation  
Precipitation 0.40 in - - ()
Sea Level Pressure  
Sea Level Pressure 30.10 in    
Wind  
Wind Speed 5 mph (WSW)    
Max Wind Speed 15 mph    
Max Gust Speed -    
Visibility 9 miles    
Events Rain    
Averages and records for this station are not official NWS values.
T = Trace of Precipitation, MM = Missing Value Source: NWS Daily Summary

Daily Weather History Graph

Daily Weather History Graph

Search for Another Location

Airport:

Trip Planner

Search our weather history database for the weather conditions in past years. The results will help you decide how hot, cold, wet, or windy it might be!

Date:

Astronomy

Jan. 25, 2013 Rise Set
Actual Time 6:41 AM PST 5:08 PM PST
Civil Twilight 6:15 AM PST 5:35 PM PST
Nautical Twilight 5:45 AM PST 6:04 PM PST
Astronomical Twilight 5:16 AM PST 6:34 PM PST
Moon 4:09 PM PST (1/25) 5:23 AM PST (1/25)
Length of Visible Light 11h 19m
Length of Day
10h 27m
Waxing Gibbous, 98% of the Moon is Illuminated
Jan 25
Waxing Gibbous
Jan 26
Full
Feb 3
Last Quarter
Feb 9
New
Feb 17
First Quarter

Hourly Weather History & Observations

Time (PST) Temp. Dew Point Humidity Pressure Visibility Wind Dir Wind Speed Gust Speed Precip Events Conditions
12:56 AM 57.9 °F 41.0 °F 53% 30.19 in 10.0 mi West 4.6 mph - N/A   Clear
1:56 AM 57.9 °F 41.0 °F 53% 30.18 in 10.0 mi WSW 5.8 mph - N/A   Partly Cloudy
2:56 AM 57.9 °F 43.0 °F 58% 30.17 in 10.0 mi West 3.5 mph - N/A   Partly Cloudy
3:56 AM 57.9 °F 42.1 °F 56% 30.16 in 10.0 mi SW 6.9 mph - N/A   Clear
4:56 AM 60.1 °F 42.1 °F 51% 30.16 in 10.0 mi Calm Calm - N/A   Scattered Clouds
5:56 AM 57.0 °F 43.0 °F 59% 30.17 in 10.0 mi Calm Calm - N/A   Mostly Cloudy
6:56 AM 55.9 °F 37.9 °F 51% 30.17 in 10.0 mi WNW 3.5 mph - N/A   Mostly Cloudy
7:56 AM 57.9 °F 44.1 °F 60% 30.19 in 10.0 mi WSW 5.8 mph - 0.00 in Rain Light Rain
8:30 AM 60.8 °F 46.4 °F 59% 30.14 in 10.0 mi NW 4.6 mph - 0.00 in Rain Light Rain
8:56 AM 63.0 °F 48.9 °F 60% 30.20 in 10.0 mi West 5.8 mph - 0.00 in   Mostly Cloudy
9:56 AM 66.9 °F 50.0 °F 54% 30.20 in 10.0 mi West 9.2 mph - N/A   Mostly Cloudy
10:41 AM 68.0 °F 48.2 °F 49% 30.15 in 10.0 mi WNW 13.8 mph - 0.00 in Rain Light Rain
10:56 AM 66.9 °F 51.1 °F 57% 30.19 in 10.0 mi WNW 15.0 mph - 0.00 in Rain Light Rain
11:56 AM 64.0 °F 55.9 °F 75% 30.16 in 10.0 mi West 12.7 mph - 0.00 in Rain Light Rain
12:56 PM 62.1 °F 57.0 °F 84% 30.13 in 7.0 mi West 10.4 mph - 0.01 in Rain Light Rain
1:56 PM 62.1 °F 57.0 °F 84% 30.10 in 7.0 mi West 10.4 mph - 0.01 in Rain Light Rain
2:56 PM 61.0 °F 57.0 °F 87% 30.08 in 6.0 mi West 9.2 mph - 0.02 in Rain Rain
3:56 PM 61.0 °F 57.9 °F 90% 30.07 in 6.0 mi WSW 5.8 mph - 0.02 in Rain Rain
4:56 PM 60.1 °F 57.9 °F 93% 30.05 in 6.0 mi WSW 4.6 mph - 0.02 in Rain Rain
5:56 PM 60.1 °F 57.9 °F 93% 30.07 in 8.0 mi SW 5.8 mph - 0.01 in Rain Rain
6:56 PM 59.0 °F 57.9 °F 96% 30.06 in 8.0 mi SW 4.6 mph - 0.06 in Rain Rain
7:56 PM 59.0 °F 57.9 °F 96% 30.05 in 8.0 mi Calm Calm - 0.02 in Rain Light Rain
8:56 PM 59.0 °F 57.9 °F 96% 30.04 in 10.0 mi Calm Calm - 0.00 in Rain Rain
9:14 PM 59.0 °F 57.2 °F 94% 30.00 in 10.0 mi South 3.5 mph - 0.01 in Rain Rain
9:22 PM 59.0 °F 57.2 °F 94% 30.00 in 10.0 mi South 3.5 mph - 0.03 in Rain Rain
9:56 PM 57.9 °F 57.9 °F 100% 30.05 in 10.0 mi Calm Calm - 0.09 in Rain Rain
10:36 PM 57.2 °F 57.2 °F 100% 29.99 in 10.0 mi Calm Calm - 0.06 in Rain Rain
10:56 PM 57.9 °F 57.9 °F 100% 30.03 in 10.0 mi Calm Calm - 0.08 in Rain Rain
11:19 PM 57.2 °F 57.2 °F 100% 29.99 in 10.0 mi SW 5.8 mph - 0.02 in Rain Rain
11:28 PM 57.2 °F 57.2 °F 100% 29.98 in 10.0 mi SW 5.8 mph - 0.02 in Rain Rain
11:38 PM 57.2 °F 57.2 °F 100% 29.98 in 10.0 mi SW 3.5 mph - 0.04 in Rain Rain
11:56 PM 57.9 °F 57.9 °F 100% 30.02 in 10.0 mi WSW 3.5 mph - 0.06 in Rain Rain